Wichita, KS

7:22 AM CST on December 12, 2017 (GMT -0600)
Wichita Eisenhower National Airport

Weather History for KICT - August, 2013

Change the Weather History Date:

Friday, August 9, 2013

  Actual Average Record
Temperature  
Mean Temperature 69 °F 81 °F  
Max Temperature 74 °F 92 °F 111 °F (1936)
Min Temperature 64 °F 70 °F 55 °F (1989)
Degree Days  
Heating Degree Days 0 0  
Month to date heating degree days 0 0  
Since 1 June heating degree days 4 6  
Since 1 July heating degree days 1 0  
Cooling Degree Days 4 16  
Month to date cooling degree days 116 144  
Year to date cooling degree days 1115 1106  
Since 1 June cooling degree days 977 970  
Growing Degree Days 18 (Base 50)    
Moisture  
Dew Point 64 °F    
Average Humidity 83    
Maximum Humidity 97    
Minimum Humidity 68    
Precipitation  
Precipitation 0.31 in 0.11 in 1.68 in (2008)
Month to date precipitation 7.95 1.00  
Year to date precipitation 31.49 21.38  
Snow  
Snow 0.00 in 0.00 in 0.00 in (2007)
Month to date snowfall 0.0 0.0  
Since 1 June snowfall 0.0 0.0  
Since 1 July snowfall 0.0 0.0  
Snow Depth 0.00 in    
Sea Level Pressure  
Sea Level Pressure 30.02 in    
Wind  
Wind Speed 10 mph (NE)    
Max Wind Speed 28 mph    
Max Gust Speed 32 mph    
Visibility 10 miles    
Events Rain , Thunderstorm    
T = Trace of Precipitation, MM = Missing Value Source: NWS Daily Summary

Daily Weather History Graph

Daily Weather History Graph

Search for Another Location

Airport or City:

Trip Planner

Search our weather history database for the weather conditions in past years. The results will help you decide how hot, cold, wet, or windy it might be!

Date:

Astronomy

Aug. 09, 2013 Rise Set
Actual Time 6:40 AM CDT 8:29 PM CDT
Civil Twilight 6:12 AM CDT 8:57 PM CDT
Nautical Twilight 5:37 AM CDT 9:31 PM CDT
Astronomical Twilight 5:01 AM CDT 10:08 PM CDT
Moon 9:23 AM CDT (8/9) 9:44 PM CDT (8/9)
Length of Visible Light 14h 45m
Length of Day
13h 48m
Waxing Crescent, 8% of the Moon is Illuminated
Aug 9
Waxing Crescent
Aug 14
First Quarter
Aug 20
Full
Aug 28
Last Quarter
Sep 5
New

Hourly Weather History & Observations

Time (CDT) Temp. Dew Point Humidity Pressure Visibility Wind Dir Wind Speed Gust Speed Precip Events Conditions
12:32 AM 73.4 °F 68.0 °F 83% 29.99 in 10.0 mi NE 11.5 mph 18.4 mph N/A   Overcast
12:53 AM 72.0 °F 68.0 °F 87% 29.95 in 10.0 mi ENE 11.5 mph - N/A   Overcast
1:53 AM 72.0 °F 68.0 °F 87% 29.95 in 10.0 mi East 13.8 mph - N/A   Overcast
2:29 AM 71.6 °F 68.0 °F 88% 29.98 in 10.0 mi East 8.1 mph - N/A   Overcast
2:53 AM 71.1 °F 66.9 °F 87% 29.94 in 10.0 mi ENE 11.5 mph - 0.00 in Rain Light Rain
3:53 AM 71.1 °F 66.0 °F 84% 29.95 in 10.0 mi East 10.4 mph - 0.00 in   Overcast
4:53 AM 71.1 °F 66.0 °F 84% 29.93 in 10.0 mi ENE 10.4 mph - 0.00 in Rain Light Rain
5:53 AM 69.1 °F 66.9 °F 93% 29.94 in 5.0 mi Calm Calm - 0.09 in Rain , Thunderstorm Heavy Thunderstorms and Rain
6:14 AM 69.8 °F 66.2 °F 88% 29.97 in 3.0 mi Calm Calm - 0.13 in Rain Heavy Rain
6:53 AM 70.0 °F 68.0 °F 93% 29.94 in 10.0 mi ENE 4.6 mph - 0.17 in Rain Light Rain
7:09 AM 69.8 °F 68.0 °F 94% 29.97 in 10.0 mi ENE 3.5 mph - 0.01 in Rain Light Rain
7:45 AM 69.8 °F 68.0 °F 94% 29.99 in 10.0 mi NNE 5.8 mph - 0.02 in Rain Light Rain
7:53 AM 70.0 °F 68.0 °F 93% 29.96 in 10.0 mi North 6.9 mph - 0.02 in Rain Light Rain
8:53 AM 70.0 °F 68.0 °F 93% 29.98 in 10.0 mi NNE 11.5 mph - 0.00 in Rain Light Rain
9:53 AM 70.0 °F 66.9 °F 90% 30.00 in 10.0 mi NE 18.4 mph - 0.00 in Rain Light Rain
10:36 AM 66.2 °F 62.6 °F 88% 30.05 in 10.0 mi NE 18.4 mph - 0.00 in   Overcast
10:53 AM 64.9 °F 59.0 °F 81% 30.03 in 10.0 mi NE 20.7 mph 32.2 mph 0.00 in Rain Light Rain
11:53 AM 64.9 °F 60.1 °F 84% 30.05 in 10.0 mi NE 13.8 mph - 0.00 in Rain Light Rain
12:29 PM 64.4 °F 60.8 °F 88% 30.08 in 10.0 mi NE 9.2 mph - 0.03 in Rain Light Rain
12:36 PM 66.2 °F 60.8 °F 83% 30.09 in 10.0 mi NE 11.5 mph - 0.03 in Rain Light Rain
12:49 PM 66.2 °F 62.6 °F 88% 30.08 in 10.0 mi NE 11.5 mph - 0.03 in Rain Light Rain
12:53 PM 66.9 °F 62.1 °F 84% 30.06 in 10.0 mi NE 11.5 mph - 0.03 in Rain Light Rain
1:53 PM 68.0 °F 62.1 °F 81% 30.06 in 10.0 mi NE 11.5 mph - 0.00 in   Mostly Cloudy
2:00 PM 69.8 °F 62.6 °F 78% 30.08 in 10.0 mi NE 12.7 mph - N/A   Mostly Cloudy
2:43 PM 69.8 °F 62.6 °F 78% 30.09 in 10.0 mi NE 10.4 mph - N/A   Mostly Cloudy
2:53 PM 69.1 °F 62.1 °F 78% 30.06 in 10.0 mi NE 10.4 mph - N/A   Mostly Cloudy
3:53 PM 71.1 °F 61.0 °F 70% 30.06 in 10.0 mi NE 10.4 mph - N/A   Mostly Cloudy
4:32 PM 71.6 °F 62.6 °F 73% 30.09 in 10.0 mi NE 11.5 mph 17.3 mph N/A   Overcast
4:53 PM 73.0 °F 63.0 °F 71% 30.06 in 10.0 mi ENE 10.4 mph - N/A   Overcast
5:12 PM 73.4 °F 62.6 °F 69% 30.08 in 10.0 mi NE 11.5 mph - N/A   Mostly Cloudy
5:53 PM 73.0 °F 63.0 °F 71% 30.04 in 10.0 mi ENE 11.5 mph 19.6 mph N/A   Mostly Cloudy
6:53 PM 73.0 °F 62.1 °F 68% 30.03 in 10.0 mi ENE 10.4 mph - N/A   Mostly Cloudy
7:53 PM 72.0 °F 64.0 °F 76% 30.04 in 10.0 mi NE 11.5 mph - N/A   Scattered Clouds
8:53 PM 70.0 °F 63.0 °F 78% 30.07 in 10.0 mi NE 5.8 mph - N/A   Scattered Clouds
9:53 PM 69.1 °F 64.9 °F 87% 30.09 in 10.0 mi North 5.8 mph - N/A   Partly Cloudy
10:53 PM 69.1 °F 64.0 °F 84% 30.12 in 10.0 mi North 5.8 mph - N/A   Partly Cloudy
11:53 PM 68.0 °F 64.0 °F 87% 30.13 in 10.0 mi North 5.8 mph - N/A   Partly Cloudy